• In Portugal
  • List of Countries
  • For 7 days
  • Water Temperature
  • Satellite Maps
  • Weather Map
  • Weather Widgets
  • user-avatar
    Login

    Hourly Weather Brasília

    Today, 23 November, Thursday

    Time Temperature Precipitation Wind Pressure Humidity
    00:00 +20°C° 0.5 mm 1 mps 664 mmHg 95%
    01:00 +19°C° 0.5 mm 2 mps 664 mmHg 94%
    02:00 +19°C° 0.5 mm 2 mps 664 mmHg 94%
    03:00 +20°C° 0 mm 1 mps 664 mmHg 94%
    04:00 +19°C° 0.2 mm 2 mps 664 mmHg 94%
    05:00 +19°C° 0.2 mm 2 mps 664 mmHg 94%
    06:00 +19°C° 0.2 mm 2 mps 664 mmHg 94%
    07:00 +20°C° 0.4 mm 2 mps 664 mmHg 90%
    08:00 +21°C° 0.4 mm 2 mps 665 mmHg 87%
    09:00 +21°C° 0.4 mm 3 mps 665 mmHg 84%
    10:00 +24°C° 0.1 mm 3 mps 665 mmHg 77%
    11:00 +25°C° 0.1 mm 3 mps 665 mmHg 70%
    12:00 +27°C° 0.1 mm 2 mps 666 mmHg 62%
    13:00 +27°C° 0.3 mm 2 mps 665 mmHg 62%
    14:00 +28°C° 0.3 mm 2 mps 665 mmHg 61%
    15:00 +28°C° 0.3 mm 2 mps 665 mmHg 60%
    16:00 +27°C° 1.3 mm 2 mps 664 mmHg 67%
    17:00 +25°C° 1.3 mm 2 mps 664 mmHg 74%
    18:00 +24°C° 1.3 mm 1 mps 664 mmHg 81%
    19:00 +23°C° 1.3 mm 1 mps 664 mmHg 84%
    20:00 +23°C° 1.3 mm 1 mps 664 mmHg 86%
    21:00 +22°C° 1.3 mm 1 mps 665 mmHg 89%
    22:00 +22°C° 1.2 mm 1 mps 665 mmHg 90%
    23:00 +21°C° 1.2 mm 1 mps 665 mmHg 92%

    Tomorrow, 24 November, Friday

    Time Temperature Precipitation Wind Pressure Humidity
    00:00 +21°C° 1.2 mm 1 mps 665 mmHg 93%
    01:00 +21°C° 0.8 mm 1 mps 665 mmHg 93%
    02:00 +21°C° 0.8 mm 1 mps 665 mmHg 93%
    03:00 +21°C° 0.8 mm 1 mps 664 mmHg 93%
    04:00 +21°C° 0.4 mm 1 mps 664 mmHg 93%
    05:00 +21°C° 0.4 mm 1 mps 665 mmHg 93%
    06:00 +18°C° 0.4 mm 0 mps 665 mmHg 93%
    07:00 +19°C° 0.4 mm 0 mps 665 mmHg 91%
    08:00 +20°C° 0.4 mm 0 mps 666 mmHg 89%
    09:00 +20°C° 0.4 mm 0 mps 666 mmHg 86%
    10:00 +22°C° 0.1 mm 0 mps 667 mmHg 80%
    11:00 +25°C° 0.1 mm 1 mps 667 mmHg 74%
    12:00 +27°C° 0.1 mm 1 mps 667 mmHg 67%
    13:00 +27°C° 0.5 mm 1 mps 667 mmHg 67%
    14:00 +27°C° 0.5 mm 1 mps 666 mmHg 67%
    15:00 +27°C° 0.5 mm 1 mps 665 mmHg 66%
    16:00 +26°C° 1 mm 1 mps 665 mmHg 72%
    17:00 +25°C° 1 mm 1 mps 665 mmHg 77%
    18:00 +24°C° 1 mm 1 mps 664 mmHg 83%
    19:00 +23°C° 0.9 mm 1 mps 665 mmHg 85%
    20:00 +23°C° 0.9 mm 1 mps 665 mmHg 87%
    21:00 +22°C° 0.9 mm 1 mps 666 mmHg 89%
    22:00 +22°C° 1.2 mm 1 mps 666 mmHg 89%
    23:00 +20°C° 1.2 mm 2 mps 666 mmHg 90%

    Day after tomorrow, 25 November, Saturday

    Time Temperature Precipitation Wind Pressure Humidity
    00:00 +20°C° 1.2 mm 2 mps 666 mmHg 90%
    01:00 +20°C° 0.8 mm 2 mps 665 mmHg 91%
    02:00 +20°C° 0.8 mm 2 mps 665 mmHg 92%
    03:00 +19°C° 0.8 mm 2 mps 664 mmHg 93%
    04:00 +19°C° 0.1 mm 2 mps 665 mmHg 93%
    05:00 +19°C° 0.1 mm 2 mps 665 mmHg 93%
    06:00 +19°C° 0.1 mm 2 mps 665 mmHg 94%
    07:00 +21°C° 0.2 mm 2 mps 666 mmHg 87%
    08:00 +22°C° 0.2 mm 3 mps 667 mmHg 81%
    09:00 +25°C° 0.2 mm 4 mps 668 mmHg 75%
    10:00 +26°C° 0.4 mm 4 mps 667 mmHg 71%
    11:00 +27°C° 0.4 mm 3 mps 667 mmHg 66%
    12:00 +28°C° 0.4 mm 3 mps 667 mmHg 62%
    13:00 +28°C° 0.6 mm 3 mps 667 mmHg 62%
    14:00 +29°C° 0.6 mm 3 mps 666 mmHg 61%
    15:00 +29°C° 0.6 mm 3 mps 665 mmHg 61%
    16:00 +27°C° 1 mm 2 mps 665 mmHg 67%
    17:00 +26°C° 1 mm 2 mps 665 mmHg 73%
    18:00 +25°C° 1 mm 1 mps 664 mmHg 80%
    19:00 +24°C° 2.6 mm 1 mps 665 mmHg 82%
    20:00 +23°C° 2.6 mm 1 mps 665 mmHg 85%
    21:00 +21°C° 2.6 mm 2 mps 666 mmHg 88%
    22:00 +21°C° 2.3 mm 2 mps 666 mmHg 88%
    23:00 +21°C° 2.3 mm 2 mps 666 mmHg 89%

    26 November, Sunday

    Time Temperature Precipitation Wind Pressure Humidity
    00:00 +20°C° 2.3 mm 2 mps 666 mmHg 90%
    01:00 +20°C° 0.5 mm 2 mps 665 mmHg 90%
    02:00 +20°C° 0.5 mm 2 mps 665 mmHg 91%
    03:00 +21°C° 0.5 mm 1 mps 664 mmHg 91%
    04:00 +21°C° 0.1 mm 1 mps 665 mmHg 91%
    05:00 +21°C° 0.1 mm 1 mps 665 mmHg 91%
    06:00 +20°C° 0.1 mm 1 mps 665 mmHg 90%
    07:00 +20°C° 0.2 mm 2 mps 666 mmHg 89%
    08:00 +21°C° 0.2 mm 2 mps 666 mmHg 87%
    09:00 +21°C° 0.2 mm 3 mps 667 mmHg 86%
    10:00 +24°C° 0.1 mm 3 mps 667 mmHg 80%
    11:00 +25°C° 0.1 mm 3 mps 667 mmHg 75%
    12:00 +26°C° 0.1 mm 3 mps 666 mmHg 69%
    13:00 +26°C° 1.1 mm 3 mps 666 mmHg 70%
    14:00 +26°C° 1.1 mm 2 mps 665 mmHg 71%
    15:00 +26°C° 1.1 mm 2 mps 664 mmHg 72%
    16:00 +25°C° 3 mm 2 mps 664 mmHg 77%
    17:00 +24°C° 3 mm 1 mps 664 mmHg 83%
    18:00 +22°C° 3 mm 1 mps 664 mmHg 89%
    19:00 +22°C° 1.5 mm 1 mps 664 mmHg 90%
    20:00 +22°C° 1.5 mm 1 mps 665 mmHg 90%
    21:00 +21°C° 1.5 mm 1 mps 665 mmHg 91%
    22:00 +21°C° 0.4 mm 1 mps 665 mmHg 91%
    23:00 +21°C° 0.4 mm 1 mps 665 mmHg 90%

    27 November, Monday

    Time Temperature Precipitation Wind Pressure Humidity
    00:00 +21°C° 0.4 mm 1 mps 665 mmHg 90%
    01:00 +21°C° 0.1 mm 1 mps 665 mmHg 90%
    02:00 +21°C° 0.1 mm 1 mps 664 mmHg 90%
    03:00 +20°C° 0.1 mm 1 mps 664 mmHg 90%
    04:00 +20°C° 0.1 mm 1 mps 664 mmHg 90%
    05:00 +20°C° 0.1 mm 1 mps 664 mmHg 91%
    06:00 +20°C° 0.1 mm 1 mps 665 mmHg 91%
    07:00 +21°C° 0.2 mm 2 mps 666 mmHg 85%
    08:00 +22°C° 0.2 mm 3 mps 666 mmHg 79%
    09:00 +25°C° 0.2 mm 3 mps 667 mmHg 72%
    10:00 +26°C° 0.6 mm 3 mps 667 mmHg 70%
    11:00 +26°C° 0.6 mm 3 mps 667 mmHg 68%
    12:00 +27°C° 0.6 mm 3 mps 667 mmHg 65%
    13:00 +27°C° 1.5 mm 2 mps 666 mmHg 67%
    14:00 +27°C° 1.5 mm 2 mps 665 mmHg 68%
    15:00 +27°C° 1.5 mm 2 mps 665 mmHg 69%
    16:00 +26°C° 1.7 mm 1 mps 665 mmHg 74%
    17:00 +25°C° 1.7 mm 1 mps 665 mmHg 79%
    18:00 +24°C° 1.7 mm 1 mps 664 mmHg 84%
    19:00 +23°C° 1.6 mm 1 mps 665 mmHg 85%
    20:00 +23°C° 1.6 mm 1 mps 665 mmHg 86%
    21:00 +22°C° 1.6 mm 1 mps 666 mmHg 87%
    22:00 +22°C° 1.8 mm 1 mps 666 mmHg 88%
    23:00 +22°C° 1.8 mm 1 mps 666 mmHg 89%

    28 November, Tuesday

    Time Temperature Precipitation Wind Pressure Humidity
    00:00 +21°C° 1.8 mm 1 mps 666 mmHg 91%
    01:00 +21°C° 1.3 mm 1 mps 665 mmHg 91%
    02:00 +21°C° 1.3 mm 1 mps 665 mmHg 92%
    03:00 +21°C° 1.3 mm 1 mps 665 mmHg 92%
    04:00 +21°C° 0.3 mm 1 mps 665 mmHg 92%
    05:00 +21°C° 0.3 mm 1 mps 665 mmHg 91%
    06:00 +21°C° 0.3 mm 1 mps 665 mmHg 91%
    07:00 +21°C° 0.2 mm 1 mps 666 mmHg 88%
    08:00 +22°C° 0.2 mm 1 mps 666 mmHg 85%
    09:00 +23°C° 0.2 mm 1 mps 666 mmHg 83%
    10:00 +24°C° 0.3 mm 1 mps 666 mmHg 75%
    11:00 +26°C° 0.3 mm 2 mps 666 mmHg 67%
    12:00 +28°C° 0.3 mm 2 mps 666 mmHg 59%
    13:00 +27°C° 1.1 mm 2 mps 666 mmHg 63%
    14:00 +27°C° 1.1 mm 2 mps 665 mmHg 67%
    15:00 +27°C° 1.1 mm 2 mps 664 mmHg 71%
    16:00 +25°C° 1.8 mm 2 mps 664 mmHg 76%
    17:00 +24°C° 1.8 mm 2 mps 664 mmHg 82%
    18:00 +23°C° 1.8 mm 1 mps 664 mmHg 88%
    19:00 +22°C° 1.5 mm 1 mps 664 mmHg 89%
    20:00 +22°C° 1.5 mm 1 mps 665 mmHg 90%
    21:00 +22°C° 1.5 mm 1 mps 665 mmHg 91%
    22:00 +21°C° 0.6 mm 1 mps 665 mmHg 91%
    23:00 +21°C° 0.6 mm 1 mps 665 mmHg 91%
    Show more